Hourly Data Report for April 13, 2020

MIRAMICHI RCS
NEW BRUNSWICK
Current Station Operator: ECCC - MSC

47°00'34.000" N
65°27'54.000" W
33.00 m
8100989
71744
ACQ

Download Data

Hourly Data (April 2020)
Hourly Data Report for April 13, 2020
TIME
LST
Temp Definition
°C
Dew Point Definition
°C
Rel Hum Definition
%
Precip. Amount Definition
mm

Wind Dir Definition
10's deg

Wind Spd Definition
km/h
Visibility Definition
km
Stn Press Definition
kPa
Hmdx Definition


Wind Chill Definition


Weather Definition


00:00 3.8 -3.6 59 LegendMM 23 12   101.67     LegendNANA
01:00 3.7 -3.5 59 LegendMM 24 11   101.72     LegendNANA
02:00 1.3 -3.5 71 LegendMM 22 8   101.75     LegendNANA
03:00 0.8 -3.8 71 LegendMM 22 1   101.74     LegendNANA
04:00 -0.2 -3.9 76 LegendMM 17 5   101.76   -2 LegendNANA
05:00 0.6 -3.7 73 LegendMM 16 3   101.79     LegendNANA
06:00 0.8 -3.0 76 LegendMM   0   101.83     LegendNANA
07:00 1.3 -2.2 78 LegendMM 17 3   101.83     LegendNANA
08:00 3.2 -1.0 74 LegendMM 18 5   101.77     LegendNANA
09:00 4.5 0.0 73 LegendMM 16 6   101.72     LegendNANA
10:00 6.0 1.6 73 LegendMM 16 8   101.63     LegendNANA
11:00 5.1 1.3 77 LegendMM 12 10   101.60     LegendNANA
12:00 4.3 3.0 91 LegendMM 11 11   101.50     LegendNANA
13:00 4.4 3.4 93 LegendMM 11 10   101.41     LegendNANA
14:00 4.7 4.1 96 LegendMM 11 11   101.22     LegendNANA
15:00 5.8 5.3 97 LegendMM 10 8   101.09     LegendNANA
16:00 6.6 6.2 97 LegendMM 7 10   100.94     LegendNANA
17:00 8.2 6.5 89 LegendMM 16 16   100.76     LegendNANA
18:00 8.1 6.7 91 LegendMM 16 29   100.59     LegendNANA
19:00 7.4 6.7 95 LegendMM 15 25   100.39     LegendNANA
20:00 7.4 6.9 97 LegendMM 15 23   100.26     LegendNANA
21:00 7.8 7.4 97 LegendMM 16 19   100.12     LegendNANA
22:00 7.6 7.2 98 LegendMM 15 20   99.76     LegendNANA
23:00 8.6 8.0 96 LegendMM 17 25   99.48     LegendNANA

Notes on Data Quality.

Legend

  • E = Estimated
  • M = Missing
  • NA = Not Available*
  • [empty] = Indicates an unobserved value
Date modified: